Location: Campestrin
(46.4667°N, 11.7167°E)
Time: 10:49:07
(UTC+00:00)

Cosmos 1092 Rocket - Pass Details

Date: 18 April 2021
Orbit: 954 x 995 km, 82.9° (Epoch: 06 May)

Event Time Altitude Azimuth Distance (km) Brightness Sun altitude
Rises 18:57:27 0° 352° (N) 3,699 7.6 -9.2°
Reaches altitude 10° 18:59:59 10° 354° (N) 2,741 6.8 -9.6°
Maximum altitude 19:06:17 78° 81° (E) 997 4.0 -10.5°
Drops below altitude 10° 19:12:28 10° 168° (SSE) 2,694 5.9 -11.4°
Enters shadow 19:14:53 - 169° (S) 3,607 6.6 -11.8°
